Location: Wildlife_Club
(35.6000°N, 81.4330°W)
Time: 15:06:32
(UTC-04:00)

Courier 1B Rocket - Pass Details

Date: 24 June 2019
Orbit: 920 x 1202 km, 28.2° (Epoch: 21 July)

Event Time Altitude Azimuth Distance (km) Brightness Sun altitude
Exits shadow 04:57:44 17° 226° (SW) 2,431 6.4 -12.9°
Maximum altitude 05:02:34 38° 168° (SSE) 1,544 5.8 -12.2°
Drops below altitude 10° 05:08:39 10° 103° (ESE) 2,749 7.9 -11.3°
Sets 05:11:25 0° 95° (E) 3,660 8.8 -10.8°
